Calaveras, Mexico

3:25 PM MST on December 06, 2016 (GMT -0700)
Gen Rafael Buelna International

Weather History for MMMZ - September, 2013

Change the Weather History Date:

Monday, September 2, 2013

  Actual Average Record
Temperature  
Mean Temperature 80 °F -  
Max Temperature 86 °F 87 °F 93 °F (2015)
Min Temperature 73 °F 74 °F 71 °F (2007)
Cooling Degree Days 14    
Growing Degree Days 30 (Base 50)    
Moisture  
Dew Point 68 °F    
Average Humidity 67    
Maximum Humidity 94    
Minimum Humidity 58    
Precipitation  
Precipitation 0.00 in - - ()
Sea Level Pressure  
Sea Level Pressure 29.79 in    
Wind  
Wind Speed 7 mph ()    
Max Wind Speed 13 mph    
Max Gust Speed -    
Visibility 11.7 miles    
Events Thunderstorm    
Averages and records for this station are not official NWS values.
T = Trace of Precipitation, MM = Missing Value Source: Averaged Metar Reports

Daily Weather History Graph

Daily Weather History Graph

Search for Another Location

Airport or City:

Trip Planner

Search our weather history database for the weather conditions in past years. The results will help you decide how hot, cold, wet, or windy it might be!

Date:

Astronomy

Sep. 02, 2013 Rise Set
Actual Time 6:47 AM MDT 7:21 PM MDT
Civil Twilight 6:24 AM MDT 7:43 PM MDT
Nautical Twilight 5:58 AM MDT 8:10 PM MDT
Astronomical Twilight 5:31 AM MDT 8:37 PM MDT
Moon 4:18 AM MDT (9/2) 5:28 PM MDT (9/2)
Length of Visible Light 13h 19m
Length of Day
12h 33m
Waning Crescent, 7% of the Moon is Illuminated
Sep 2
Waning Crescent
Sep 5
New
Sep 12
First Quarter
Sep 19
Full
Sep 26
Last Quarter

Hourly Weather History & Observations

Time (MDT) Temp. Heat Index Dew Point Humidity Pressure Visibility Wind Dir Wind Speed Gust Speed Precip Events Conditions
12:00 AM 78 °F - 76 °F 92% 29.90 in - ESE 4.5 mph - -  
12:49 AM 75.2 °F - 73.4 °F 94% 29.88 in 8.0 mi North 12.7 mph - N/A Thunderstorm Thunderstorm
1:43 AM 75.2 °F - 71.6 °F 89% 29.84 in 8.0 mi North 9.2 mph - N/A   Overcast
2:48 AM 73.4 °F - 62.6 °F 69% 29.80 in 8.0 mi NW 9.2 mph - N/A   Overcast
3:45 AM 73.4 °F - 62.6 °F 69% 29.80 in 8.0 mi North 10.4 mph - N/A   Overcast
4:43 AM 73.4 °F - 62.6 °F 69% 29.79 in 8.0 mi NW 8.1 mph - N/A   Overcast
5:48 AM 73.4 °F - 62.6 °F 69% 29.81 in 10.0 mi NW 6.9 mph - N/A   Overcast
6:42 AM 73.4 °F - 62.6 °F 69% 29.80 in 10.0 mi NW 6.9 mph - N/A   Overcast
7:43 AM 73.4 °F - 62.6 °F 69% 29.79 in 12.0 mi North 8.1 mph - N/A   Overcast
8:40 AM 77.0 °F - 64.4 °F 65% 29.79 in 12.0 mi North 6.9 mph - N/A   Overcast
9:00 AM 85 °F - 74 °F 63% 29.82 in - NW 4.5 mph - -  
9:42 AM 82.4 °F 84.6 °F 66.2 °F 58% 29.80 in 14.0 mi NW 8.1 mph - N/A   Mostly Cloudy
10:43 AM 84.2 °F 87.3 °F 68.0 °F 58% 29.80 in 14.0 mi NNW 8.1 mph - N/A   Mostly Cloudy
11:45 AM 86.0 °F 90.4 °F 69.8 °F 58% 29.79 in 14.0 mi WSW 9.2 mph - N/A   Scattered Clouds
12:41 PM 84.2 °F 88.4 °F 69.8 °F 62% 29.78 in 14.0 mi SW 12.7 mph - N/A   Mostly Cloudy
1:41 PM 86.0 °F 90.4 °F 69.8 °F 58% 29.77 in 14.0 mi SW 9.2 mph - N/A   Mostly Cloudy
2:41 PM 86.0 °F 90.4 °F 69.8 °F 58% 29.76 in 15.0 mi SSW 10.4 mph - N/A   Mostly Cloudy
3:40 PM 86.0 °F 90.4 °F 69.8 °F 58% 29.74 in 15.0 mi SW 9.2 mph - N/A   Mostly Cloudy
4:40 PM 84.2 °F 87.3 °F 68.0 °F 58% 29.73 in 15.0 mi SW 10.4 mph - N/A   Mostly Cloudy
5:41 PM 82.4 °F 84.6 °F 66.2 °F 58% 29.75 in 15.0 mi WSW 10.4 mph - N/A   Mostly Cloudy
6:41 PM 82.4 °F 84.6 °F 66.2 °F 58% 29.73 in 15.0 mi WSW 8.1 mph - N/A   Scattered Clouds
7:43 PM 80.6 °F 82.7 °F 66.2 °F 61% 29.75 in 12.0 mi SW 8.1 mph - N/A   Scattered Clouds
8:45 PM 78.8 °F - 68.0 °F 69% 29.78 in 10.0 mi SE 6.9 mph - N/A   Scattered Clouds
9:00 PM 85 °F - 78 °F 73% 29.81 in - SSW 2.2 mph - -  
9:47 PM 78.8 °F - 66.2 °F 65% 29.79 in 10.0 mi SW 6.9 mph - N/A   Mostly Cloudy
10:50 PM 78.8 °F - 68.0 °F 69% 29.81 in 10.0 mi East 5.8 mph - N/A   Mostly Cloudy
11:49 PM 78.8 °F - 66.2 °F 65% 29.82 in 10.0 mi NW 5.8 mph - N/A   Mostly Cloudy